Showing default

OPS 0757 (TACSAT), 3691

Orbit data source: Space-Track

OPS 0757 (TACSAT), 3691 is a payload satellite owned by SAMSO (US) in GEO that was launched on Sun, 09 Feb 1969 UTC via a TITAN IIIC launch vehicle from the Air Force Eastern Test Range (AFETR). Payload-class satellites include a variety of spacecraft equipped with specific instruments for various scientific and technological missions. These include communications satellites like Starlink; space stations such as the ISS; scientific satellites like the Hubble; Earth observation satellites from companies like Planet Labs, Umbra, and HawkEye 360; GPS; miniature CubeSats for education and research; and military/defense satellites.

Not visible in the next 10 days
Identifier
3691, 1969-013A
Orbit
GEO
Country
Flag of USUS
Related business
Manufacturer
Hughes
Mission
Non-operational spacecraft
Bus & Motor
HS-308, Unknown motor
Mass
721 kg wet, ~650 kg dry
Launch date (UTC)
1969-02-09 (57 years ago)
Launch vehicle
TITAN IIIC
Launch site
Air Force Eastern Test Range (AFETR)
Object type
Payload
Rocket body
Debris
Shape & HBR
Unknown
Radar Cross Section
Medium (>0.1 m² and <1 m²)

Expand to show TLE details & history
Last TLE update: 5 hours ago

TLE from 5 hours ago
0 OPS 0757 (TACSAT)
1 03691U 69013A   26125.25920519 -.00000157  00000-0  00000-0 0  9991
2 03691   2.7417  74.7376 0019501 179.4184  37.6503  1.00406188113676
Epoch: 2026-05-05T06:13Z
TLE epoch observation values (Epoch: 2026-05-05T06:13:15.328Z)
Latitude
-1.65638°
Longitude
-24.54071°
Altitude
35,683.703 km
Speed
3.081 km/s
True Right ascension
19h 27m 38s
True Declination
-1° 39' 17"
Sunlit
Object was in daylight at epoch
Visualization orbit readout
Latitude
Unknown
Longitude
Unknown
Altitude
Unknown
Speed
Unknown
Apparent Right ascension
Unknown
Apparent Declination
Unknown
Sunlit
N/A
Visualization observer readout
Local Sidereal Time
19:23:49
Azimuth
Unknown
Elevation
Unknown
Doppler factor
Unknown
Orbital elements
Apogee altitude
35,832.181 km
Perigee altitude
35,667.873 km
Semi-major axis
42,128.164 km
Eccentricity
0.00195
Inclination
2.7417°
RAAN
74.7376°
Arg. of periapsis
179.4184°
True anomaly
37.78707°
Mean anomaly
37.6503°
Eccentric anomaly
37.71866°
Mean motion
0.25101 °/min
Orbital period
1,434.23 mins
BSTAR
0
Loading maneuver chart data...
Computing Atmospheric mass density...

Documentation

Showing up to 5 results
|